[[{"header":{"parameterUnit":"m.s-1","parameterCategory":1,"la1":30.2991,"la2":30.254,"lo1":-89.0895,"lo2":-89.0444,"dy":0.0017,"dx":0.0017,"nx":28,"ny":28,"refTime":"2024-03-13T03:00:00:Z","depth":0,"parameterNumber":2,"parameterNumberName":"U-component_of_WINDS"},"data":[0,0,0,0,0,0,0,0,0,0,0,0,0,0,0,0,0,0,0,0,0,0,0,0,0,0,0,0,0,0,0,0,0,0,0,0,0,0,0,0,0,0,0,0,0,0,0,0,0,0,0,0,0,0,0,0,0,0,-4.2986,-4.2986,0,-4.3039,-4.3039,-4.304,-4.298,-4.2978,-4.2975,-4.2973,-4.3026,-4.303,-4.3033,0,0,0,0,0,0,0,0,0,0,0,0,0,-4.2833,-4.2836,-4.2986,-4.2986,-4.2987,-4.3039,-4.3039,-4.304,-4.298,-4.2978,-4.2975,-4.2972,-4.3025,-4.3029,-4.3033,0,0,0,0,0,0,0,0,0,0,0,0,0,-4.2894,-4.2837,-4.2986,-4.2964,-4.2962,-4.3038,-4.3039,-4.304,-4.2981,-4.2978,-4.2974,-4.2971,-4.3024,-4.3029,-4.3034,-4.3134,0,0,-4.305,-4.3052,0,0,0,0,0,0,0,0,-4.289,-4.2899,-4.2966,-4.2965,-4.2964,-4.2999,-4.3005,-4.3072,-4.2982,-4.2974,-4.2973,-4.2969,-4.302,-4.3025,-4.3043,-4.3137,-4.3139,-4.305,-4.3054,-4.3056,-4.3057,0,0,0,0,0,0,0,-4.2886,-4.2897,-4.3007,-4.2967,-4.2966,-4.2951,-4.2956,-4.3017,-4.3015,-4.2974,-4.297,-4.2977,-4.3019,-4.3038,-4.3043,-4.314,-4.305,-4.3055,-4.3058,-4.306,-4.3319,-4.3322,0,0,0,0,0,0,-4.2885,-4.2894,-4.3005,-4.3008,-4.2918,-4.2956,-4.2962,-4.2991,-4.3014,-4.3015,-4.298,-4.2974,-4.303,-4.3037,-4.3045,-4.3163,-4.3056,-4.3061,-4.3064,-4.3315,-4.3319,-4.3323,0,0,0,0,0,0,-4.2881,-4.2895,-4.3003,-4.295,-4.2962,-4.2963,-4.2996,-4.2994,-4.3013,-4.3019,-4.3018,-4.3,-4.3028,-4.3038,-4.3112,-4.3164,-4.3063,-4.3068,-4.3311,-4.3316,-4.3321,-4.3401,0,0,0,0,0,0,-4.2877,-4.2894,-4.2932,-4.2951,-4.2965,-4.307,-4.2999,-4.2998,-4.3022,-4.3015,-4.3037,-4.3037,-4.3026,-4.3105,-4.3118,-4.3169,-4.3072,-4.3306,-4.3313,-4.332,-4.3393,-4.3408,-4.3421,0,0,0,0,0,-4.2872,-4.2952,-4.2934,-4.2948,-4.3013,-4.3073,-4.3081,-4.3066,-4.3027,-4.3065,-4.3069,-4.3037,-4.3157,-4.3113,-4.3127,-4.3181,-4.3302,-4.3311,-4.3319,-4.3387,-4.3405,-4.3421,0,0,0,0,0,0,-4.2938,-4.2954,-4.2935,-4.3023,-4.3047,-4.3063,-4.311,-4.3086,-4.3121,-4.3113,-4.3094,-4.3099,-4.3179,-4.3188,-4.3138,-4.3279,-4.3223,-4.3235,-4.327,-4.3287,-4.3301,-4.3296,-4.3076,0,0,0,0,0,-4.2964,-4.3011,-4.3022,-4.3099,-4.3113,-4.311,-4.3135,-4.3122,-4.3146,-4.3155,-4.3165,-4.3189,-4.3232,-4.326,-4.33,-4.3395,-4.3399,-4.344,-4.3453,-4.3465,-4.3474,-4.3525,-4.3543,-4.3351,-4.3351,-4.3351,0,0,-4.3015,-4.303,-4.3061,-4.3113,-4.313,-4.3179,-4.3118,-4.3173,-4.3209,-4.3164,-4.3234,-4.3243,-4.3268,-4.3354,-4.3392,-4.3363,-4.3528,-4.3475,-4.3484,-4.3488,-4.3535,-4.3553,-4.3569,-4.3356,-4.3355,-4.3355,0,0,-4.3135,-4.3151,-4.3217,-4.3236,-4.3263,-4.3261,-4.3277,-4.3296,-4.33,-4.3371,-4.3338,-4.3381,-4.3456,-4.3476,-4.3495,-4.3625,-4.3596,-4.3638,-4.3709,-4.3759,-4.3774,-4.3787,-4.3832,-4.3849,-4.3648,-4.3649,-4.3649,0,-4.3195,-4.3269,-4.3254,-4.3311,-4.3335,-4.3297,-4.3364,-4.3383,-4.3421,-4.3438,-4.3407,-4.35,-4.3515,-4.3604,-4.3636,-4.3654,-4.3671,-4.3634,-4.3773,-4.3786,-4.3799,-4.3841,-4.3858,-4.3653,-4.3653,-4.3652,-4.3652,0,-4.3342,-4.3393,-4.3443,-4.3482,-4.3512,-4.3574,-4.3568,-4.36,-4.3585,-4.3586,-4.366,-4.3677,-4.3719,-4.374,-4.3726,-4.3828,-4.3809,-4.3776,-4.3719,-4.3822,-4.3862,-4.3878,-4.366,-4.3659,-4.3657,-4.3656,0,0,-4.3501,-4.3533,-4.3551,-4.3569,-4.3597,-4.3636,-4.3697,-4.3739,-4.3766,-4.3795,-4.3845,-4.391,-4.388,-4.3902,-4.3891,-4.3934,-4.4035,-4.3896,-4.3896,-4.392,-4.4147,-4.417,-4.419,-4.4017,-4.402,-4.4023,-4.4144,0,-4.362,-4.3725,-4.3714,-4.3813,-4.386,-4.3827,-4.3879,-4.3902,-4.3906,-4.3946,-4.395,-4.3996,-4.3953,-4.3967,-4.4009,-4.4014,-4.408,-4.4005,-4.4062,-4.4064,-4.4055,-4.421,-4.4235,-4.4349,-4.416,-4.4163,-4.4164,0,-4.3772,-4.3807,-4.3911,-4.3932,-4.3952,-4.3999,-4.4038,-4.4077,-4.4103,-4.4102,-4.4129,-4.411,-4.417,-4.4114,-4.4197,-4.4146,-4.417,-4.4176,-4.418,-4.4183,-4.4119,-4.4216,-4.4385,-4.4401,-4.4189,-4.4187,-4.4185,0,-4.3876,-4.395,-4.4021,-4.4037,-4.4065,-4.4099,-4.4112,-4.4134,-4.4161,-4.4195,-4.4211,-4.4252,-4.4274,-4.4306,-4.4298,-4.4258,-4.4383,-4.4326,-4.4384,-4.4384,-4.4409,-4.4407,-4.4582,-4.4428,-4.4428,-4.4427,-4.4427,0,-4.4009,-4.4073,-4.4068,-4.4112,-4.4184,-4.4172,-4.4243,-4.4252,-4.4273,-4.4317,-4.4292,-4.4334,-4.4323,-4.4365,-4.436,-4.4429,-4.444,-4.444,-4.4438,-4.4441,-4.4441,-4.4454,-4.4446,-4.4432,-4.4431,-4.443,-4.4429,0,-4.4136,-4.4136,-4.4211,-4.4232,-4.4239,-4.429,-4.4307,-4.4349,-4.4351,-4.4409,-4.4421,-4.4425,-4.4474,-4.447,-4.4525,-4.4521,-4.4606,-4.4595,-4.4598,-4.4594,-4.4651,-4.4646,-4.484,-4.4864,-4.4696,-4.4697,-4.4699,0,-4.422,-4.4269,-4.4295,-4.4323,-4.4339,-4.4385,-4.4412,-4.4403,-4.4432,-4.4466,-4.4504,-4.455,-4.4586,-4.4666,-4.4673,-4.4715,-4.4704,-4.4769,-4.471,-4.4712,-4.4703,-4.4699,-4.4704,-4.478,-4.4782,-4.4783,-4.4784,0,-4.4367,-4.4365,-4.4405,-4.4447,-4.448,-4.4512,-4.4541,-4.4566,-4.4559,-4.4594,-4.4644,-4.4672,-4.4729,-4.4775,-4.4815,-4.4828,-4.4805,-4.4804,-4.4819,-4.4822,-4.482,-4.4821,-4.4627,-4.4798,-4.4797,-4.4796,-4.4795,-4.4795,-4.4474,-4.4516,-4.4541,-4.4587,-4.4609,-4.4637,-4.4677,-4.4685,-4.4726,-4.4771,-4.4764,-4.482,-4.4845,-4.4897,-4.4914,-4.4957,-4.4934,-4.4956,-4.4961,-4.4967,-4.4972,-4.4816,-4.4965,-4.4965,-4.4964,-4.4964,-4.4964,0,-4.4619,-4.4634,-4.4677,-4.4718,-4.4755,-4.4732,-4.4763,-4.4795,-4.4845,-4.4871,-4.4908,-4.4965,-4.501,-4.5022,-4.5066,-4.5098,-4.5089,-4.511,-4.5106,-4.5109,-4.4992,-4.4973,-4.5117,-4.5117,-4.5117,-4.5117,-4.5117,-4.5116,-4.4698,-4.4768,-4.4769,-4.485,-4.4864,-4.4919,-4.4939,-4.4964,-4.4985,-4.505,-4.5088,-4.5096,-4.5116,-4.5162,-4.5202,-4.5204,-4.5221,-4.5246,-4.5244,-4.5133,-4.5118,-4.5103,-4.5086,-4.525,-4.525,-4.5357,-4.5358,-4.5359]},{"header":{"parameterUnit":"m.s-1","parameterCategory":1,"la1":30.2991,"la2":30.254,"lo1":-89.0895,"lo2":-89.0444,"dy":0.0017,"dx":0.0017,"nx":28,"ny":28,"refTime":"2024-03-13T03:00:00:Z","depth":0,"parameterNumber":3,"parameterNumberName":"V-component_of_WINDS"},"data":[0,0,0,0,0,0,0,0,0,0,0,0,0,0,0,0,0,0,0,0,0,0,0,0,0,0,0,0,0,0,0,0,0,0,0,0,0,0,0,0,0,0,0,0,0,0,0,0,0,0,0,0,0,0,0,0,0,0,1.9578,1.9579,0,1.9611,1.9611,1.9612,1.9613,1.9612,1.9612,1.9612,1.9643,1.9644,1.9645,0,0,0,0,0,0,0,0,0,0,0,0,0,1.9517,1.9519,1.9578,1.9579,1.9579,1.9611,1.9611,1.9612,1.9613,1.9612,1.9612,1.9612,1.9643,1.9644,1.9645,0,0,0,0,0,0,0,0,0,0,0,0,0,1.9546,1.9519,1.9578,1.9584,1.9584,1.9611,1.9611,1.9612,1.9613,1.9612,1.9612,1.9611,1.9642,1.9644,1.9646,1.9668,0,0,1.9651,1.9652,0,0,0,0,0,0,0,0,1.9545,1.9548,1.9582,1.9583,1.9584,1.9607,1.9601,1.9631,1.9613,1.9602,1.9612,1.9611,1.9631,1.9634,1.9641,1.9669,1.9671,1.9651,1.9652,1.9653,1.9654,0,0,0,0,0,0,0,1.9543,1.9547,1.9591,1.9583,1.9584,1.9584,1.9588,1.9607,1.9619,1.9603,1.9603,1.9607,1.9632,1.964,1.9642,1.9671,1.9651,1.9653,1.9654,1.9654,1.9722,1.9723,0,0,0,0,0,0,1.954,1.9545,1.959,1.9592,1.9563,1.9586,1.959,1.96,1.9619,1.9622,1.9608,1.9607,1.9637,1.964,1.9643,1.9672,1.9653,1.9655,1.9656,1.9721,1.9722,1.9723,0,0,0,0,0,0,1.9538,1.9544,1.9589,1.9569,1.9575,1.9588,1.96,1.9601,1.9609,1.9623,1.9625,1.9613,1.9636,1.9641,1.9663,1.9673,1.9655,1.9657,1.972,1.9722,1.9723,1.973,0,0,0,0,0,0,1.9537,1.9543,1.9552,1.9569,1.9576,1.9608,1.96,1.9602,1.9613,1.9612,1.9629,1.9631,1.9636,1.966,1.9664,1.9675,1.9658,1.9719,1.9721,1.9722,1.9728,1.9731,1.9733,0,0,0,0,0,1.9534,1.9551,1.9552,1.9557,1.9587,1.9608,1.9612,1.9619,1.9613,1.9622,1.9631,1.963,1.9671,1.9662,1.9667,1.9679,1.9719,1.972,1.9722,1.9727,1.973,1.9733,0,0,0,0,0,0,1.9533,1.9554,1.9555,1.9578,1.9591,1.9608,1.9619,1.9621,1.9636,1.9635,1.9642,1.9646,1.9668,1.9675,1.9665,1.9703,1.9695,1.9697,1.9697,1.97,1.9702,1.97,1.966,0,0,0,0,0,1.9536,1.9552,1.9569,1.9587,1.9595,1.9606,1.9616,1.962,1.9634,1.9639,1.965,1.9664,1.968,1.969,1.9706,1.973,1.9734,1.9741,1.9743,1.9744,1.9747,1.9762,1.9766,1.9728,1.9728,1.9728,0,0,1.9541,1.9554,1.9564,1.9588,1.9599,1.9616,1.9611,1.9628,1.9641,1.9642,1.9664,1.9672,1.9688,1.9712,1.9723,1.9719,1.9758,1.9746,1.9748,1.9749,1.9764,1.9768,1.9771,1.9729,1.9729,1.9729,0,0,1.9559,1.957,1.9588,1.96,1.9618,1.9626,1.963,1.9648,1.9654,1.9676,1.9678,1.9693,1.9721,1.9732,1.9742,1.9768,1.9768,1.9773,1.9784,1.9799,1.9802,1.9804,1.9815,1.9818,1.9775,1.9775,1.9775,0,1.9563,1.9589,1.9597,1.9615,1.9627,1.963,1.9649,1.966,1.9681,1.9689,1.9684,1.9721,1.9731,1.9759,1.9765,1.9773,1.9778,1.9771,1.9801,1.9804,1.9806,1.9816,1.982,1.9775,1.9775,1.9775,1.9775,0,1.9594,1.9612,1.9624,1.9647,1.9659,1.9677,1.9689,1.9701,1.9704,1.9713,1.9737,1.975,1.9769,1.9776,1.9779,1.9805,1.9802,1.9799,1.9791,1.981,1.982,1.9824,1.9776,1.9776,1.9776,1.9776,0,0,1.961,1.9639,1.9644,1.9655,1.9676,1.969,1.9709,1.9729,1.974,1.9755,1.9772,1.9796,1.9795,1.9806,1.981,1.9823,1.9845,1.9819,1.982,1.9824,1.9876,1.9879,1.9883,1.9846,1.9846,1.9847,1.9875,0,1.9631,1.9666,1.9676,1.9705,1.9723,1.9728,1.9745,1.976,1.9769,1.9786,1.9795,1.9813,1.9809,1.9816,1.9829,1.984,1.9856,1.9838,1.9862,1.9863,1.9858,1.9888,1.989,1.9916,1.9879,1.988,1.988,0,1.966,1.9678,1.971,1.9732,1.9739,1.9755,1.9775,1.9791,1.9808,1.9814,1.9828,1.9832,1.9853,1.9844,1.9874,1.9861,1.9872,1.9879,1.988,1.9883,1.9873,1.9892,1.9924,1.9928,1.9886,1.9885,1.9885,0,1.9671,1.9703,1.9727,1.9736,1.9761,1.9772,1.9783,1.98,1.9813,1.983,1.9839,1.9858,1.9869,1.9884,1.9894,1.9886,1.9923,1.9915,1.9929,1.9929,1.9937,1.9936,1.9972,1.9943,1.9943,1.9942,1.9942,0,1.9694,1.9714,1.9732,1.9747,1.977,1.9781,1.9803,1.9814,1.983,1.9847,1.9852,1.9868,1.988,1.9897,1.9905,1.9929,1.9934,1.994,1.9942,1.994,1.9939,1.9947,1.9945,1.9943,1.9943,1.9943,1.9943,0,1.9709,1.9722,1.9749,1.9772,1.9778,1.9794,1.9813,1.9828,1.9838,1.986,1.9866,1.9882,1.9903,1.9915,1.9941,1.9946,1.9974,1.9974,1.9968,1.9969,1.9984,1.9983,2.0026,2.0033,1.9998,1.9999,1.9999,0,1.9723,1.9739,1.9764,1.9777,1.9788,1.9808,1.9821,1.9833,1.9847,1.987,1.9882,1.9904,1.9923,1.9957,1.9971,1.9992,1.9993,2.0007,1.9996,1.9995,1.9995,1.9994,1.9996,2.0009,2.0009,2.001,2.001,0,1.9747,1.9754,1.9773,1.9796,1.9812,1.983,1.9848,1.9858,1.9873,1.9888,1.9911,1.9926,1.9954,1.9976,1.9999,2.001,2.0013,2.0013,2.0018,2.0016,2.0013,2.0016,1.9975,2.0012,2.0012,2.0012,2.0012,2.0011,1.9763,1.9778,1.9799,1.9821,1.9836,1.9853,1.9869,1.9883,1.9902,1.9927,1.9933,1.9958,1.9977,2.0008,2.002,2.0039,2.0036,2.0043,2.0045,2.0046,2.0048,2.0009,2.0043,2.0043,2.0043,2.0043,2.0043,0,1.9788,1.9802,1.9823,1.9849,1.9867,1.9869,1.989,1.9904,1.9927,1.9945,1.9964,1.9991,2.0014,2.003,2.0053,2.0066,2.0068,2.0072,2.0071,2.0074,2.0048,2.0042,2.007,2.007,2.007,2.007,2.007,2.007,1.9803,1.983,1.9839,1.9874,1.9888,1.9913,1.9925,1.9941,1.9956,1.9987,2.0006,2.0017,2.0036,2.006,2.0081,2.0086,2.0094,2.0098,2.0103,2.0078,2.0075,2.0073,2.0067,2.01,2.01,2.0127,2.0127,2.0128]}]]